Le nostre stazioni meteo in Italia

Pubblicità
Il mio iltempo24.it
Catania/Sigonella, Italia (16459): Temperatura & dewpoint: 15.08.2019 14:00:00 - 21.08.2019 14:00:00 (CEST)Catania/Sigonella, Italia (16459): velocità del vento: 15.08.2019 14:00:00 - 21.08.2019 14:00:00 (CEST)Catania/Sigonella, Italia (16459): direzione del vento: 15.08.2019 14:00:00 - 21.08.2019 14:00:00 (CEST)Catania/Sigonella, Italia (16459): reduced air pressure: 15.08.2019 14:00:00 - 21.08.2019 14:00:00 (CEST)Catania/Sigonella, Italia (16459): visibility: 15.08.2019 14:00:00 - 21.08.2019 14:00:00 (CEST)
Data & Tempo tt [°C] td [°C] ff [km/h] ff [kn] dd ppp [hPa] vv [km]
21.08.2019 14:00:00 33,4 12,4 24 13 ENE 1017,1 15
21.08.2019 13:00:00 33,0 13,0 11 6 E - 10
21.08.2019 12:00:00 31,0 16,0 4 2 NO - 10
21.08.2019 11:00:00 29,0 18,8 5 3 O 1018,3 15
21.08.2019 10:00:00 26,0 19,0 5 3 ONO - 10
21.08.2019 09:00:00 25,0 18,0 9 5 ONO - 10
21.08.2019 08:00:00 21,6 16,5 13 7 ONO 1018,3 10
21.08.2019 07:00:00 20,0 16,0 8 4 O - 10
21.08.2019 06:00:00 19,0 19,0 8 4 O - 10
21.08.2019 05:00:00 21,0 16,6 8 4 O 1017,4 10
21.08.2019 04:00:00 21,0 17,0 9 5 O - 10
21.08.2019 03:00:00 22,0 19,0 8 4 O - 10
21.08.2019 02:00:00 22,2 21,4 8 4 ONO 1017,6 10
21.08.2019 01:00:00 23,0 21,0 5 3 O - 10
21.08.2019 00:00:00 25,0 22,0 8 4 O - 10
20.08.2019 23:00:00 25,4 22,5 8 4 ONO 1017,9 10
20.08.2019 22:00:00 26,0 23,0 8 4 N - 10
20.08.2019 21:00:00 26,0 23,0 9 5 O - 10
20.08.2019 20:00:00 26,4 21,6 22 12 NE 1016,9 12
20.08.2019 19:00:00 27,0 21,0 24 13 ENE - 10
20.08.2019 18:00:00 30,0 11,0 24 13 ENE - 10
20.08.2019 17:00:00 30,0 12,9 28 15 ENE 1017,3 15
20.08.2019 16:00:00 30,0 15,0 26 14 E - 10
20.08.2019 15:00:00 31,0 16,0 26 14 E - 10
20.08.2019 14:00:00 31,0 16,6 22 12 E 1017,8 15
20.08.2019 13:00:00 30,0 17,0 21 11 E - 10
20.08.2019 12:00:00 30,0 19,0 16 9 E - 10
20.08.2019 11:00:00 29,6 18,1 11 6 ESE 1018,3 15
20.08.2019 10:00:00 27,0 20,0 5 3 NE - 10
20.08.2019 09:00:00 25,0 19,0 4 2 NO - 10
20.08.2019 08:00:00 22,2 19,4 8 4 O 1017,4 16
20.08.2019 07:00:00 21,0 19,0 8 4 ONO - 10
20.08.2019 06:00:00 20,0 20,0 8 4 O - 10
20.08.2019 05:00:00 19,8 19,8 8 4 OSO 1017,3 10
20.08.2019 04:00:00 21,0 21,0 5 3 O - 10
20.08.2019 03:00:00 23,0 22,0 9 5 ONO - 10
20.08.2019 02:00:00 23,4 23,4 8 4 O 1017,4 15
20.08.2019 01:00:00 24,0 24,0 5 3 ONO - 10
20.08.2019 00:00:00 23,0 23,0 5 3 O - 10
19.08.2019 23:00:00 25,0 24,5 4 2 NE 1017,4 15
19.08.2019 22:00:00 25,0 24,0 2 1 - - 10
19.08.2019 21:00:00 26,0 25,0 16 9 ENE - 10
19.08.2019 20:00:00 26,6 24,1 21 11 ENE 1016,5 10
19.08.2019 19:00:00 27,0 23,0 22 12 ENE - 10
19.08.2019 18:00:00 29,0 20,0 26 14 E - 10
19.08.2019 17:00:00 29,8 17,6 26 14 E 1016,3 10
19.08.2019 16:00:00 30,0 20,0 9 5 E - 10
19.08.2019 15:00:00 30,0 22,0 28 15 E - 10
19.08.2019 14:00:00 30,0 22,2 24 13 E 1016,4 10
19.08.2019 13:00:00 29,0 23,0 24 13 E - 10
19.08.2019 12:00:00 29,0 22,0 18 10 E - 10
19.08.2019 11:00:00 29,4 21,4 18 10 E 1016,6 10
19.08.2019 10:00:00 28,0 21,0 9 5 ENE - 10
19.08.2019 09:00:00 26,0 21,0 5 3 SO - 10
19.08.2019 08:00:00 23,0 19,8 8 4 OSO 1015,8 15
19.08.2019 07:00:00 22,0 20,0 5 3 ONO - 10
19.08.2019 06:00:00 22,0 21,0 4 2 NNE - 10
19.08.2019 05:00:00 23,0 23,0 4 2 ONO 1015,4 10
19.08.2019 04:00:00 23,0 23,0 13 7 ONO - 10
19.08.2019 03:00:00 23,0 23,0 11 6 ONO - 10
19.08.2019 02:00:00 23,8 23,8 11 6 ONO 1016,0 10
19.08.2019 01:00:00 25,0 25,0 13 7 O - 10
19.08.2019 00:00:00 25,0 25,0 9 5 O - 10
18.08.2019 23:00:00 25,6 25,1 4 2 NNO 1015,8 10
18.08.2019 22:00:00 26,0 25,0 11 6 N - 10
18.08.2019 21:00:00 26,0 26,0 18 10 ENE - 10
18.08.2019 20:00:00 26,4 25,0 22 12 ENE 1015,4 16
18.08.2019 19:00:00 27,0 25,0 28 15 ENE - 10
18.08.2019 18:00:00 29,0 24,0 26 14 ENE - 10
18.08.2019 17:00:00 29,2 17,7 28 15 E 1015,4 18
18.08.2019 16:00:00 30,0 17,0 28 15 ENE - 10
18.08.2019 15:00:00 30,0 17,0 24 13 E - 10
18.08.2019 14:00:00 30,0 19,7 24 13 E 1016,3 18
18.08.2019 13:00:00 30,0 20,0 18 10 E - 10
18.08.2019 12:00:00 30,0 21,0 15 8 E - 10
18.08.2019 11:00:00 29,0 17,5 5 3 SSE 1016,5 18
18.08.2019 10:00:00 28,0 22,0 4 2 - - 10
18.08.2019 09:00:00 25,0 21,0 8 4 O - 10
18.08.2019 08:00:00 22,6 20,5 9 5 ONO 1016,4 12
18.08.2019 07:00:00 21,0 20,0 5 3 O - 10
18.08.2019 06:00:00 22,0 20,0 9 5 O - 10
18.08.2019 05:00:00 22,0 21,2 9 5 ONO 1016,5 10
18.08.2019 04:00:00 21,0 21,0 9 5 O - 10
18.08.2019 03:00:00 23,0 23,0 9 5 O - 10
18.08.2019 02:00:00 23,0 23,0 5 3 OSO 1016,7 10
18.08.2019 01:00:00 24,0 24,0 5 3 NO - 10
18.08.2019 00:00:00 24,0 24,0 4 2 NNO - 10
17.08.2019 23:00:00 24,2 24,2 13 7 ENE 1016,4 10
17.08.2019 22:00:00 25,0 25,0 11 6 E - 10
17.08.2019 21:00:00 26,0 25,0 15 8 E - 10
17.08.2019 20:00:00 26,6 25,7 22 12 E 1014,7 15
17.08.2019 19:00:00 27,0 20,0 22 12 E - 10
17.08.2019 18:00:00 29,0 18,0 28 15 E - 10
17.08.2019 17:00:00 29,8 18,0 28 15 E 1014,8 15
17.08.2019 16:00:00 30,0 20,0 26 14 E - 10
17.08.2019 15:00:00 30,0 18,0 29 16 E - 10
17.08.2019 14:00:00 31,0 17,7 24 13 E 1015,6 15
17.08.2019 13:00:00 30,0 14,0 18 10 ENE - 10
17.08.2019 12:00:00 30,0 17,0 8 4 NO - 10
17.08.2019 11:00:00 29,0 19,0 8 4 SSO 1016,3 15
17.08.2019 10:00:00 27,0 22,0 8 4 ONO - 10
17.08.2019 09:00:00 25,0 20,0 9 5 O - 10
17.08.2019 08:00:00 21,2 16,8 13 7 ONO 1016,6 15
17.08.2019 07:00:00 20,0 19,0 9 5 O - 10
17.08.2019 06:00:00 20,0 17,0 9 5 ONO - 10
17.08.2019 05:00:00 19,6 19,6 5 3 OSO 1015,8 15
17.08.2019 04:00:00 21,0 18,0 5 3 OSO - 10
17.08.2019 03:00:00 22,0 22,0 8 4 O - 10
17.08.2019 02:00:00 23,0 22,5 5 3 O 1016,3 18
17.08.2019 01:00:00 23,0 22,0 5 3 N - 10
17.08.2019 00:00:00 23,0 23,0 5 3 S - 10
16.08.2019 23:00:00 24,0 23,5 9 5 SE 1016,2 18
16.08.2019 22:00:00 25,0 23,0 8 4 SE - 10
16.08.2019 21:00:00 26,0 22,0 16 9 E - 10
16.08.2019 20:00:00 27,0 18,6 24 13 E 1014,2 15
16.08.2019 19:00:00 28,0 18,0 28 15 E - 10
16.08.2019 18:00:00 29,0 18,0 29 16 E - 10
16.08.2019 17:00:00 29,0 16,9 34 18 E 1014,3 15
16.08.2019 16:00:00 30,0 16,0 34 18 E - 10
16.08.2019 15:00:00 30,0 14,0 34 18 E - 10
16.08.2019 14:00:00 32,0 11,2 24 13 E 1014,5 15
16.08.2019 13:00:00 32,0 10,0 8 4 SE - 10
16.08.2019 12:00:00 31,0 10,0 9 5 OSO - 10
16.08.2019 11:00:00 29,8 13,6 4 2 ONO 1015,7 15
16.08.2019 10:00:00 27,0 14,0 8 4 O - 10
16.08.2019 09:00:00 26,0 17,0 9 5 O - 10
16.08.2019 08:00:00 21,6 17,8 8 4 O 1015,4 10
16.08.2019 07:00:00 19,0 19,0 5 3 SSO - 10
16.08.2019 06:00:00 21,0 19,0 5 3 O - 10
16.08.2019 05:00:00 20,6 19,3 9 5 O 1015,2 10
16.08.2019 04:00:00 21,0 20,0 9 5 NNE - 10
16.08.2019 03:00:00 21,0 20,0 5 3 O - 10
16.08.2019 02:00:00 21,6 20,9 8 4 O 1015,6 10
16.08.2019 01:00:00 22,0 20,0 8 4 OSO - 10
16.08.2019 00:00:00 23,0 21,0 9 5 OSO - 10
15.08.2019 23:00:00 24,0 20,9 8 4 NO 1015,4 10
15.08.2019 22:00:00 25,0 22,0 4 2 NNE - 10
15.08.2019 21:00:00 26,0 22,0 9 5 SE - 10
15.08.2019 20:00:00 27,2 19,8 15 8 SE 1013,6 15
15.08.2019 19:00:00 28,0 18,0 24 13 ESE - 10
15.08.2019 18:00:00 29,0 19,0 28 15 E - 10
15.08.2019 17:00:00 29,2 18,3 31 17 E 1012,6 15
15.08.2019 16:00:00 30,0 18,0 29 16 E - 10
15.08.2019 15:00:00 31,0 17,0 29 16 E - 10
15.08.2019 14:00:00 30,8 15,7 26 14 E 1013,3 15

tt = Temperatura
td = dewpoint
ff = velocità del vento
dd = direzione del vento
ppp = reduced air pressure
vv = visibility

Stazioni seguenti

WeatherPro
AMSI
MeteoEarth